Location: Costa Mesa
(33.6411°N, 117.9187°W)
Time: 03:04:16
(UTC+00:00)

Cosmos 2322 Rocket - Pass Details

Date: 10 September 2024
Orbit: 831 x 850 km, 71.0° (Epoch: 10 October)

Event Time Altitude Azimuth Distance (km) Brightness Sun altitude
Rises 12:06:48 0° 335° (NNW) 3,410 5.3 -18.1°
Reaches altitude 10° 12:09:17 10° 332° (NNW) 2,469 4.5 -17.7°
Maximum altitude 12:14:52 64° 253° (WSW) 931 2.1 -16.6°
Drops below altitude 10° 12:20:24 10° 173° (S) 2,443 4.5 -15.5°
Sets 12:22:50 0° 170° (S) 3,370 5.3 -15.0°
